GFSCGP_sfc_dewp_198.txt.gz
Dewpoint
20 16 15 16 17 17 17 14 12 16 18 19 19 20 21 23 24 24 29 33 37 40 40 40 42 39 39 38 38 37 41 48 67 67 67 66 68 68 68 69 69 69 68 69
18 14 17 18 19 18 18 19 18 19 20 20 21 21 22 23 24 30 37 39 41 41 41 42 42 43 44 40 40 39 42 46 65 67 66 67 67 66 67 67 68 70 69 69
17 15 20 19 19 19 19 19 19 18 22 23 21 18 21 22 30 38 41 42 42 42 41 41 41 43 44 46 41 41 42 47 59 65 66 66 66 66 66 65 65 66 68 69
18 19 19 19 19 20 19 21 21 21 22 16 20 13 19 24 29 38 41 42 43 42 42 40 40 42 44 46 45 41 43 46 53 63 65 64 63 60 61 63 65 66 67 68
18 19 19 19 20 25 21 24 23 22 21 21 20 20 23 29 31 37 41 43 44 44 43 42 40 40 43 46 48 51 50 53 57 62 62 61 58 59 62 64 63 65 66 67
19 22 22 21 26 26 26 23 22 22 20 16 19 22 20 23 32 39 42 43 44 44 44 44 44 42 41 44 46 49 52 53 55 58 59 58 56 58 59 61 62 63 64 66
23 22 25 26 23 25 24 21 18 15 13 12 22 23 23 26 39 41 42 43 43 44 44 45 44 43 42 42 45 46 50 52 56 57 57 57 57 57 57 59 62 62 62 64
21 21 25 26 23 22 25 22 17 15 15 15 21 20 22 33 41 43 44 45 44 43 45 46 46 44 43 43 45 46 47 50 52 54 56 60 60 59 59 61 63 62 62 63
24 23 26 26 26 25 23 22 23 22 23 20 21 23 26 39 38 41 42 43 42 43 46 46 45 43 45 45 45 46 48 49 51 53 55 56 57 59 62 63 63 63 62 64
27 25 28 28 29 27 24 25 23 24 17 18 22 21 22 30 36 38 37 38 41 41 45 46 46 45 45 48 48 47 49 50 52 54 55 56 57 58 61 63 62 62 63 64
26 27 27 28 26 26 27 25 27 29 27 21 21 19 30 35 36 36 39 36 38 40 44 46 47 49 52 50 48 48 48 50 52 54 57 58 59 60 61 61 62 62 62 61
33 28 26 27 29 30 28 27 28 24 20 26 23 25 29 31 36 39 35 38 38 39 41 48 50 50 52 50 48 45 48 50 51 53 57 59 59 60 60 61 60 60 59 58
34 27 24 21 20 26 26 30 29 28 27 24 25 23 29 30 30 35 39 37 38 38 41 38 40 40 43 45 46 46 47 48 51 53 55 57 58 58 58 59 60 58 57 57
39 30 27 19 19 25 27 27 28 30 28 27 27 26 28 30 32 34 39 39 39 39 41 40 37 37 39 42 44 46 47 48 50 52 55 57 58 58 58 58 58 57 57 55
31 26 28 30 30 28 28 28 29 29 30 30 29 30 33 36 36 36 39 38 36 37 37 37 37 37 39 41 42 46 46 47 49 51 55 56 57 58 57 56 55 54 52 51
31 24 28 28 30 33 32 32 31 31 31 32 32 33 38 39 41 39 37 37 37 38 38 38 38 42 42 43 44 45 44 45 48 50 54 56 55 55 55 53 53 52 51 50
26 25 31 26 32 31 25 29 32 32 34 35 34 36 39 37 37 36 37 38 38 38 38 39 38 41 41 41 44 44 44 45 46 50 54 53 53 53 52 51 50 49 48 47
28 31 33 29 27 11 23 34 36 35 35 37 37 38 37 38 39 40 39 38 39 39 39 38 38 40 41 41 42 43 44 44 44 48 53 53 52 50 50 49 48 47 47 46
32 34 28 24 24 24 28 34 34 33 32 37 37 39 39 39 41 38 37 38 38 37 38 40 40 40 40 41 42 43 43 43 44 46 51 51 50 49 48 46 46 45 44 42
35 32 24 20 21 20 26 37 34 37 30 39 39 37 38 40 34 33 37 37 38 40 40 41 41 41 42 43 43 42 43 44 43 50 49 50 49 47 45 44 43 43 42 42
25 26 22 23 26 28 34 32 36 25 25 39 39 40 41 38 37 37 38 39 39 41 41 42 42 42 42 43 43 43 43 43 46 50 50 48 46 44 43 43 42 42 41 41
24 25 21 29 26 20 35 30 29 33 38 40 41 40 37 37 38 39 39 39 41 42 42 43 43 43 43 43 43 43 44 45 49 48 45 45 44 44 43 42 41 41 41 40
26 30 31 30 26 30 32 34 37 40 41 40 37 37 38 39 39 39 40 40 41 41 42 44 42 42 43 44 44 43 45 49 46 44 43 43 43 43 43 42 41 41 41 41
31 32 33 32 32 33 34 36 39 40 37 37 38 38 39 39 40 39 40 40 40 42 41 41 41 41 42 43 44 45 46 45 43 42 42 43 42 43 43 43 42 41 41 41
35 35 33 32 33 35 37 39 40 39 37 37 38 40 40 40 39 39 40 40 40 40 40 41 42 42 43 44 45 45 46 43 42 41 41 42 42 41 41 41 41 40 40 40
34 32 33 33 37 39 38 38 39 37 36 39 39 40 40 39 39 39 39 39 39 39 41 44 44 44 44 44 45 45 43 42 41 41 41 41 40 40 41 39 37 37 36 36

GFSCGP_sfc_dewp_201.txt.gz
Dewpoint
22 15 14 19 21 20 19 19 19 20 21 21 22 23 23 24 26 29 39 41 42 43 44 44 46 48 50 53 54 55 52 57 58 69 70 70 69 70 70 70 72 71 71 71
18 18 19 19 19 20 20 20 20 21 21 22 23 22 23 25 25 39 41 41 42 42 43 44 45 46 50 52 55 56 55 54 57 62 68 69 69 69 69 70 72 72 71 72
18 15 19 19 19 20 21 21 21 21 23 23 23 17 20 22 30 39 41 42 42 43 44 45 45 46 46 51 54 55 57 53 55 63 68 71 71 70 69 69 69 70 70 71
19 19 18 18 19 21 21 22 22 23 21 16 22 9 18 22 29 37 40 41 42 43 43 44 45 46 46 47 51 55 58 54 54 62 65 69 65 66 65 64 63 66 69 69
19 19 19 20 21 24 22 24 24 24 22 22 17 17 21 28 24 25 38 41 42 43 44 44 44 45 45 47 48 53 58 59 57 62 65 66 66 63 62 63 66 68 69 69
20 22 21 22 24 25 26 24 24 24 21 17 21 22 17 20 23 25 37 41 40 38 41 45 46 46 45 47 48 50 55 58 60 61 65 67 66 64 61 63 62 61 62 64
25 23 24 25 23 26 26 26 20 15 13 12 25 21 19 25 26 32 39 39 38 37 34 42 44 44 45 47 48 48 51 56 58 60 61 63 64 64 63 64 62 63 61 61
26 18 24 25 25 25 26 25 20 16 14 15 21 20 20 32 39 41 42 42 41 36 36 39 45 44 43 47 48 49 50 55 58 58 61 63 64 59 60 62 61 63 63 63
25 24 26 26 28 27 25 24 25 28 25 23 18 23 26 33 39 39 38 38 37 37 40 43 46 46 47 49 49 49 49 53 57 59 60 61 61 62 63 66 68 65 67 66
30 26 29 28 28 27 26 26 27 30 24 17 14 19 18 25 32 30 36 36 38 41 41 44 46 47 48 50 49 50 51 50 55 57 60 61 62 64 65 66 66 66 65 63
31 30 26 29 26 23 24 26 28 30 31 25 17 14 28 30 30 31 34 36 39 39 39 43 48 49 50 49 51 51 50 48 51 54 58 61 61 62 63 63 62 61 62 62
35 34 27 24 27 30 30 29 30 33 27 31 32 28 28 31 33 34 32 36 38 39 39 38 39 39 44 49 50 52 51 48 49 51 56 58 60 61 61 60 61 61 61 62
36 34 28 19 22 29 24 27 28 31 32 29 27 24 32 32 32 33 36 37 40 39 40 41 38 37 39 40 46 48 50 48 48 50 52 54 58 59 60 60 61 60 60 59
39 37 30 23 20 26 27 28 28 32 32 27 27 27 29 31 34 38 39 40 38 39 40 40 39 38 39 43 44 44 47 48 48 50 51 53 58 60 60 59 58 57 56 56
36 33 33 30 27 28 28 29 29 29 29 31 29 29 31 36 40 42 42 40 38 38 38 37 38 39 40 42 45 45 46 46 46 48 51 55 57 58 58 58 55 53 52 51
35 32 31 29 29 31 31 30 29 31 31 31 32 32 41 42 41 42 42 39 38 37 36 37 37 37 38 40 42 42 44 44 46 46 51 53 53 55 55 54 52 50 48 47
36 35 33 24 30 28 26 26 28 29 33 35 33 35 39 38 39 39 39 39 39 37 37 38 37 38 40 40 42 42 42 44 45 46 47 50 52 53 52 51 49 48 46 45
34 33 36 31 29 22 22 27 30 32 32 35 34 37 39 38 38 38 40 40 38 38 38 38 38 40 42 41 41 42 43 44 45 46 47 50 52 50 49 48 47 45 44 43
37 37 34 29 27 24 24 33 32 30 30 35 37 37 37 39 39 38 40 39 39 39 39 40 41 42 43 43 43 44 44 44 45 45 47 51 51 48 46 44 43 43 42 42
36 37 34 30 24 20 28 36 32 34 30 38 35 37 38 39 35 37 38 38 39 40 41 41 42 42 43 44 44 44 44 45 44 45 49 50 48 45 44 43 42 43 42 42
29 30 29 29 26 27 31 33 32 29 30 37 37 39 40 37 38 38 39 39 40 41 41 43 43 43 44 44 44 43 44 44 45 48 49 47 45 44 43 42 43 42 41 41
28 28 29 29 27 24 35 32 31 36 38 39 40 39 36 38 39 39 40 40 40 41 41 42 42 42 44 45 44 44 45 46 48 48 46 45 44 43 42 42 42 42 42 41
30 33 33 33 31 36 36 38 39 39 40 39 39 39 38 39 39 40 39 40 41 40 42 42 43 43 42 43 45 45 46 47 46 47 44 43 42 42 42 42 42 41 41 41
32 34 35 33 34 35 37 37 39 41 40 39 38 39 39 39 40 40 39 39 39 41 40 42 41 41 42 43 45 46 46 46 46 44 43 43 42 41 42 42 43 42 42 43
35 36 36 35 36 36 36 39 40 41 39 38 38 39 40 41 40 39 38 39 39 40 40 41 41 42 42 44 46 46 46 46 44 43 43 43 42 41 42 42 43 44 42 41
39 39 36 35 37 39 38 41 41 38 37 38 40 40 40 40 38 39 38 39 39 39 40 41 42 43 43 45 46 45 46 44 43 42 42 41 40 41 41 40 40 38 38 38

GFSCGP_sfc_dewp_207.txt.gz
Dewpoint
15 15 16 17 17 15 14 14 15 15 16 18 20 19 19 21 22 21 22 31 33 35 37 41 44 47 50 54 56 59 61 66 63 60 56 52 46 49 53 58 67 67 63 65
19 18 18 16 17 17 17 17 16 18 16 18 20 20 21 20 21 22 29 31 33 35 38 41 43 46 49 52 55 57 60 64 64 60 60 58 58 46 49 54 65 66 65 67
17 17 17 17 16 17 18 17 20 17 18 20 20 19 18 19 21 27 31 33 34 36 39 41 43 45 47 49 52 54 58 62 66 66 61 61 62 61 51 52 62 64 65 66
16 18 16 17 17 18 18 18 20 19 20 17 22 15 19 19 21 27 28 31 33 36 36 36 39 42 44 44 48 53 56 60 62 68 65 66 59 57 50 51 53 61 68 67
17 17 17 16 17 19 18 21 21 22 22 22 18 14 16 14 17 20 26 25 29 36 34 35 35 37 40 43 45 51 54 58 62 64 67 61 64 58 55 57 65 68 66 66
19 19 20 18 20 20 24 24 23 22 17 15 17 17 14 13 16 19 22 23 26 33 35 34 36 39 39 40 43 49 52 56 58 61 61 66 67 68 63 60 55 53 54 60
22 21 20 22 20 20 22 24 21 15 11 9 12 11 16 22 22 24 24 24 28 33 34 34 34 35 38 41 45 46 50 53 55 57 59 63 66 68 67 65 56 59 50 50
26 23 22 24 23 22 21 25 19 19 14 11 17 16 14 23 25 27 29 32 38 39 35 34 36 38 42 45 48 46 50 53 54 54 57 61 65 68 67 68 62 60 61 64
25 25 25 25 24 22 21 21 25 25 23 19 15 17 17 24 27 28 31 36 33 36 33 34 37 41 44 45 52 48 51 52 53 53 55 58 62 63 65 67 67 66 65 62
30 28 25 23 26 26 26 23 24 24 25 19 15 17 14 23 23 27 31 36 40 35 34 37 39 41 42 44 54 55 50 51 52 52 53 55 55 60 63 64 61 64 63 63
31 32 27 25 23 20 19 18 21 23 23 21 17 18 25 25 29 33 35 39 42 42 36 38 39 40 42 43 42 47 45 47 49 51 53 54 55 56 59 62 59 60 62 62
33 33 28 24 22 22 19 20 23 32 26 26 33 28 24 25 30 37 40 41 44 45 45 46 40 41 42 41 43 44 47 47 46 49 52 54 54 57 59 60 60 59 59 58
33 31 29 22 25 27 25 22 23 25 28 28 26 21 22 24 31 37 33 34 40 43 44 47 41 39 41 40 40 41 43 44 46 47 49 53 53 57 57 58 58 56 55 54
37 34 26 24 22 24 24 21 20 25 37 24 20 21 24 33 35 35 35 36 41 44 45 44 42 40 39 41 41 41 43 44 44 45 47 49 54 56 56 56 54 52 51 50
37 36 32 26 22 21 20 20 20 20 21 28 22 22 27 35 35 34 35 36 37 37 38 38 40 39 39 41 42 42 44 45 45 45 45 49 54 55 55 54 53 50 48 48
35 36 33 30 25 21 20 19 19 18 19 20 23 25 33 35 36 36 36 35 35 37 38 40 40 39 40 40 42 44 45 45 44 44 46 48 49 53 53 51 49 47 47 46
38 39 34 28 25 25 25 23 22 21 23 25 29 29 32 35 35 35 36 36 36 38 38 37 39 40 41 41 43 45 44 46 46 46 47 48 50 52 50 48 46 45 45 46
39 39 35 35 30 29 24 24 26 24 27 29 29 31 35 35 36 36 36 35 36 36 37 40 39 40 43 43 43 44 44 45 45 45 46 47 51 50 46 45 44 44 44 44
39 38 39 34 33 27 24 29 31 28 29 32 36 36 36 36 36 36 36 38 39 39 40 42 41 42 42 43 44 45 45 45 44 45 47 50 50 46 44 44 43 43 43 43
36 38 39 33 30 22 25 28 33 31 30 38 38 36 36 38 38 35 39 39 40 40 42 44 42 42 45 46 46 45 44 45 44 44 50 48 47 44 43 43 42 43 43 43
34 34 33 32 32 29 28 32 31 30 36 39 38 38 39 39 39 41 41 39 41 42 44 43 42 42 44 43 45 43 45 44 45 47 47 46 44 43 43 43 44 43 43 43
31 31 31 33 29 28 36 34 33 38 41 39 39 40 40 41 42 40 40 41 41 41 41 40 40 42 42 43 44 44 45 45 47 47 45 44 43 43 44 43 44 43 44 46
32 32 39 33 31 37 36 37 40 43 38 39 39 42 42 42 40 40 40 41 41 41 40 40 41 41 42 44 43 43 45 47 46 44 43 43 43 43 43 43 45 47 47 42
32 33 38 35 33 33 36 36 40 40 40 40 41 41 41 40 40 40 40 40 39 38 39 40 40 40 41 42 43 45 47 47 44 42 42 43 43 43 44 46 48 43 40 40
33 35 34 33 34 35 37 37 39 41 41 39 39 41 40 40 39 39 38 38 39 40 40 40 40 40 41 43 44 47 47 44 43 42 43 43 44 45 43 41 41 40 38 40
35 38 40 40 37 38 39 40 41 41 40 39 40 39 39 39 38 38 39 40 40 39 40 40 40 41 42 44 47 46 45 43 42 42 43 43 42 41 40 39 39 36 36 36

GFSCGP_sfc_dewp_210.txt.gz
Dewpoint
14 13 16 17 16 15 14 14 14 15 16 17 18 18 18 20 21 21 22 26 32 34 36 40 43 46 51 57 61 63 63 65 65 64 63 61 59 59 59 62 66 67 70 70
19 17 18 14 14 15 16 16 16 18 19 18 18 18 19 20 22 24 27 29 30 32 36 40 42 48 54 57 61 62 63 64 63 64 65 65 62 59 61 61 63 66 68 70
16 17 18 13 14 16 17 16 17 18 19 19 19 19 20 19 22 27 30 31 32 34 37 38 40 45 47 52 58 61 63 63 62 65 63 64 64 63 61 61 65 68 67 64
14 17 16 16 16 17 19 16 18 18 19 17 22 18 23 19 21 23 28 30 31 33 36 34 37 42 45 46 52 59 62 62 60 63 62 64 64 62 60 62 57 70 68 63
17 16 16 17 15 19 19 21 22 22 20 21 17 14 17 18 15 16 25 28 28 28 34 36 35 39 41 44 48 57 60 61 61 61 62 62 64 64 65 66 66 68 66 61
18 19 17 20 19 18 20 21 21 20 17 15 13 13 10 12 20 20 24 25 27 30 35 35 37 40 43 48 49 50 56 61 59 59 60 61 62 63 64 65 64 64 65 64
23 21 21 22 21 21 20 22 21 18 17 13 18 14 24 28 27 27 28 32 35 39 37 36 34 37 43 46 49 50 52 55 58 57 58 59 59 61 62 64 65 64 64 65
25 23 22 24 22 22 21 23 19 19 18 15 18 16 23 27 28 31 34 37 42 44 45 43 44 46 38 42 51 51 53 54 57 57 57 58 60 59 61 63 64 63 65 63
25 24 27 25 25 22 19 22 22 22 21 20 16 18 19 24 24 30 36 39 41 43 42 42 47 51 41 43 48 48 50 54 54 53 56 57 58 59 60 61 62 63 63 62
30 27 27 23 25 25 25 23 23 23 24 18 15 17 14 25 24 29 30 34 38 41 41 44 44 49 52 46 48 53 52 53 52 53 54 54 57 57 60 59 60 61 63 61
30 31 29 28 23 21 19 17 19 23 22 22 18 17 25 28 27 35 36 34 40 41 39 40 44 47 49 51 44 49 50 48 50 51 52 55 55 57 59 59 59 59 59 58
35 34 28 24 23 20 21 22 23 31 25 26 29 27 24 24 29 33 34 37 41 42 40 41 45 48 50 47 43 44 48 46 47 49 50 52 55 57 58 58 57 56 54 54
37 30 28 22 23 25 26 23 22 27 33 26 24 22 23 24 32 34 36 35 37 39 42 44 46 47 44 42 44 43 46 46 47 48 48 49 52 56 56 57 55 53 52 51
35 34 25 21 20 26 25 20 19 25 35 23 19 19 23 33 35 34 36 37 37 38 40 40 40 41 42 42 44 44 46 47 46 47 47 48 51 54 56 55 52 50 49 48
38 34 33 30 27 24 22 21 20 19 19 24 20 18 30 34 35 36 36 35 34 35 35 38 40 41 40 42 45 44 46 46 47 46 46 48 49 53 54 51 49 48 48 48
37 39 34 32 28 23 22 21 18 18 18 19 21 23 30 37 36 35 35 34 34 36 36 36 37 38 39 42 43 44 45 46 47 46 46 47 49 52 50 48 47 46 46 46
39 40 34 28 26 28 25 24 21 21 22 24 26 28 34 37 37 37 37 36 37 37 38 38 40 40 43 43 44 44 45 45 46 47 46 46 49 49 47 46 45 45 45 44
36 41 35 35 30 27 25 26 24 25 26 28 30 36 37 37 37 37 36 38 38 38 39 40 41 42 44 43 43 44 45 46 46 46 46 48 49 46 45 44 44 44 44 44
39 40 38 35 34 28 25 30 31 29 27 35 38 38 38 38 37 35 40 41 41 40 42 42 43 44 44 45 46 45 45 45 45 45 48 48 46 44 44 43 43 44 44 44
38 40 39 33 32 22 26 30 32 31 28 39 38 36 36 37 39 37 42 41 40 43 43 44 43 43 44 46 47 46 44 44 44 47 47 46 44 43 42 43 43 44 44 43
34 36 35 34 34 31 30 34 34 31 34 39 36 37 38 39 41 42 43 41 42 42 43 43 41 41 43 43 45 43 44 44 47 46 45 44 43 43 43 44 44 44 43 45
31 33 34 35 33 31 35 34 35 40 41 39 38 39 41 42 42 41 41 41 41 41 41 40 40 41 44 44 45 44 45 47 46 44 43 43 43 44 44 44 44 44 46 46
34 34 40 35 32 41 39 40 43 43 39 40 41 41 41 41 41 40 41 41 41 41 40 41 41 40 42 44 43 43 44 46 44 43 43 43 43 43 44 45 46 48 48 45
32 35 38 36 35 35 37 37 38 42 42 43 41 41 41 41 40 40 41 40 40 39 39 39 40 40 41 42 43 45 46 44 43 42 42 43 43 44 45 47 44 42 43 41
33 34 32 34 34 37 36 39 41 40 42 42 41 42 41 40 40 39 38 39 40 40 40 41 40 40 42 43 46 45 44 43 42 42 43 43 45 44 40 38 40 38 37 39
34 36 41 39 39 38 38 40 40 41 41 41 40 40 40 40 38 38 39 40 40 40 40 40 41 41 43 45 45 44 43 43 43 42 43 46 42 40 39 38 38 37 37 36

GFSCGP_sfc_dewp_216.txt.gz
Dewpoint
23 16 16 15 15 15 16 16 18 20 21 19 19 19 20 21 21 21 30 37 39 41 42 44 47 48 52 56 57 57 57 57 58 59 57 57 57 60 61 62 64 64 63 62
18 17 17 16 17 18 18 17 19 20 22 20 21 21 22 27 26 31 33 35 37 40 39 40 45 49 52 55 57 57 57 57 56 58 58 58 57 59 60 61 62 64 61 60
16 18 18 17 18 19 19 19 21 22 24 23 22 21 26 32 36 37 37 36 37 39 39 43 45 47 49 49 53 57 56 56 56 56 57 55 55 56 57 59 61 63 63 62
17 18 19 18 19 20 17 23 22 21 22 19 22 16 25 30 35 37 38 38 39 40 41 41 42 45 48 49 50 52 56 55 55 55 54 54 54 54 56 59 61 63 63 62
18 18 20 18 21 20 21 22 22 22 21 19 18 17 24 29 32 36 39 40 41 41 42 42 43 45 46 49 50 52 53 54 54 53 53 54 52 54 56 57 59 61 63 62
25 25 18 22 22 24 28 23 21 24 21 17 17 17 19 27 30 35 40 41 42 40 41 44 46 47 48 49 48 47 48 51 53 51 52 53 52 52 54 56 58 59 61 61
28 26 24 23 22 25 22 22 19 19 19 18 21 19 24 29 33 36 39 40 41 41 42 46 46 46 48 50 49 48 46 45 51 53 53 53 52 51 53 56 57 57 58 59
29 25 27 28 25 24 21 21 20 17 18 17 21 19 23 29 36 38 40 41 41 41 42 46 47 46 46 48 50 49 48 49 50 52 52 53 53 52 54 55 55 56 57 57
26 25 31 26 26 24 23 21 22 21 23 18 18 23 25 32 34 36 39 40 40 39 40 43 44 45 45 47 48 50 50 51 48 47 48 52 53 52 53 53 54 54 54 55
31 23 29 32 32 27 23 25 22 25 19 17 21 19 20 26 33 35 39 39 39 38 40 42 43 44 46 46 48 49 46 46 46 46 46 47 48 52 53 53 53 52 51 51
32 27 25 29 27 25 25 22 22 21 25 18 19 20 23 26 31 35 38 40 38 40 41 41 42 44 47 48 43 44 44 44 44 45 45 46 46 47 51 52 51 50 49 49
35 32 28 26 27 27 26 25 24 25 19 23 25 24 28 30 35 37 38 38 41 41 41 41 43 45 43 42 42 43 43 44 44 45 45 46 45 46 48 50 49 48 47 48
29 24 19 16 18 30 29 29 26 25 27 25 21 21 35 36 36 36 36 36 37 37 38 39 41 40 39 41 41 42 43 44 43 44 44 45 45 45 47 51 49 49 48 48
36 27 20 18 16 31 29 31 30 26 21 23 23 24 33 35 35 35 35 35 36 37 38 38 38 38 39 40 42 43 44 44 43 43 44 45 46 46 51 50 48 47 47 47
34 27 31 31 34 33 32 30 28 26 25 22 27 33 35 36 36 36 36 37 37 37 38 38 38 38 39 39 42 43 44 44 42 42 44 46 47 51 49 48 46 47 46 46
37 28 34 32 34 31 29 29 27 28 26 28 35 35 37 37 37 36 37 38 38 38 39 39 39 40 39 40 42 43 43 44 43 43 45 47 50 48 47 46 45 45 45 45
33 32 30 28 33 31 21 27 27 32 37 31 31 35 37 36 37 36 38 39 39 39 40 39 39 40 41 42 43 43 45 45 44 44 47 47 47 45 45 45 44 44 44 44
34 31 32 25 27 13 21 30 33 37 37 38 37 37 37 37 37 38 40 39 39 40 40 39 39 41 42 41 42 43 45 46 45 46 47 46 45 44 44 44 43 43 44 43
35 34 28 23 19 26 31 35 34 32 34 38 36 36 36 38 37 35 41 41 40 40 40 40 41 41 39 42 44 45 45 45 45 47 45 45 44 43 43 43 43 43 43 43
38 35 31 26 27 25 28 38 36 36 28 37 38 36 37 38 34 36 40 41 40 40 40 41 40 39 42 42 43 45 45 45 46 45 44 43 43 43 42 43 43 43 42 43
34 36 30 31 32 35 37 37 35 31 29 36 38 39 38 36 38 40 41 39 39 40 40 40 39 40 39 41 44 44 45 45 45 44 43 43 43 43 43 43 43 42 44 43
34 34 35 35 33 31 40 35 33 34 36 39 40 40 39 40 40 40 40 39 39 38 38 40 39 39 41 42 44 43 45 44 44 43 43 43 43 44 44 43 44 44 44 44
28 32 30 33 31 36 38 36 37 40 38 39 39 40 39 39 39 40 39 38 37 37 39 40 39 41 41 42 42 43 44 44 43 43 43 43 43 44 44 43 44 45 44 42
33 34 30 31 32 36 37 37 40 40 39 40 39 39 39 38 39 39 38 36 37 37 39 39 41 40 41 43 45 44 44 44 43 43 43 42 41 40 40 41 39 37 37 36
32 34 32 31 34 36 37 39 41 41 40 40 40 40 39 38 36 36 36 37 38 37 39 40 41 41 42 44 44 44 44 44 43 42 43 42 41 38 36 36 36 35 35 36
34 31 31 31 36 37 37 40 40 39 39 39 39 37 37 37 36 37 38 38 37 37 39 41 41 42 44 43 43 43 44 44 42 41 40 38 36 36 35 35 35 37 36 36

GFSCGP_sfc_dewp_219.txt.gz
Dewpoint
21 17 14 14 15 15 16 17 18 20 22 19 19 24 34 36 35 36 40 40 40 42 47 49 52 53 56 57 56 55 55 55 56 57 56 56 56 57 58 60 61 62 63 63
18 17 17 19 17 19 19 19 19 20 22 20 24 27 33 37 36 36 37 36 39 42 44 46 48 50 55 56 55 55 55 55 54 56 56 55 55 56 57 58 59 61 63 62
17 17 19 19 20 19 20 18 20 19 24 24 20 24 30 34 37 37 39 40 40 41 43 44 46 48 48 49 51 55 55 54 54 54 55 54 55 55 55 55 58 60 62 62
18 17 18 19 19 19 16 21 22 22 20 17 20 14 26 33 35 38 39 39 40 40 41 42 44 46 48 48 50 51 52 53 53 53 53 51 51 51 53 55 57 59 60 62
20 18 19 19 21 20 21 24 22 22 19 19 19 17 23 30 31 36 39 40 40 41 42 43 44 46 48 49 47 48 48 48 52 51 52 52 49 51 53 54 55 57 59 60
26 28 20 22 25 24 25 21 22 23 21 17 18 17 17 26 28 35 39 41 40 41 43 45 46 45 46 48 49 49 46 46 49 50 52 52 50 50 51 53 54 55 56 57
28 28 28 25 23 25 21 21 18 16 17 14 21 18 18 27 31 36 38 39 40 41 42 43 44 44 44 45 47 49 48 48 49 49 51 52 52 50 51 52 54 54 54 54
26 24 26 27 25 23 20 19 18 14 16 17 20 17 22 29 34 38 40 40 41 41 42 44 45 43 43 45 47 48 48 48 48 47 47 50 50 51 52 52 53 54 52 52
24 25 30 31 25 25 24 20 22 20 21 19 19 22 24 34 37 39 40 40 39 39 39 40 42 43 44 46 46 48 46 46 45 45 45 45 47 48 50 51 53 52 51 52
30 22 28 33 31 27 22 24 21 23 19 17 18 19 20 30 34 36 39 39 38 38 40 40 41 44 46 47 46 45 44 44 44 44 44 45 46 47 48 50 53 50 49 49
32 25 25 26 23 24 21 21 22 23 23 16 17 19 24 25 29 35 39 40 39 38 40 41 42 44 45 45 42 43 43 43 43 43 44 44 45 46 47 48 51 49 48 48
34 30 25 21 26 28 25 25 25 24 20 22 23 22 34 35 37 39 39 39 39 37 38 39 41 42 41 40 41 41 43 43 43 43 44 44 44 46 46 46 51 50 48 48
28 22 21 20 17 28 29 29 27 25 25 21 19 20 36 36 36 36 35 34 36 37 38 38 39 39 39 39 40 42 42 43 44 43 42 42 44 46 48 51 49 49 47 47
34 23 22 20 17 31 30 32 31 27 21 24 24 25 35 35 35 35 35 36 36 37 38 38 39 38 39 40 40 41 42 44 44 43 42 43 46 47 50 49 48 47 47 47
30 25 26 27 28 34 32 30 29 27 26 24 25 30 34 35 36 36 36 37 38 38 39 39 39 39 40 40 41 42 43 43 44 43 43 44 49 50 48 47 47 47 47 46
35 27 32 32 33 33 30 30 29 28 29 33 35 34 37 37 37 36 36 38 38 39 40 40 39 39 39 41 41 41 42 43 45 43 44 48 48 47 46 46 45 45 45 44
34 32 29 26 32 30 24 27 27 33 37 32 32 34 37 36 36 36 36 39 39 39 40 39 39 39 41 41 39 41 43 45 46 45 46 47 46 44 45 45 44 44 44 44
32 30 29 23 25 14 19 30 35 36 37 37 36 36 36 36 37 38 38 39 39 39 39 39 39 40 40 39 41 43 44 45 45 46 46 45 44 44 44 44 43 44 44 44
34 32 27 23 18 25 32 35 34 32 32 37 35 36 36 37 38 36 39 40 40 40 39 40 40 40 39 41 42 43 45 45 46 45 44 44 43 43 43 43 43 43 42 43
35 33 29 25 22 25 28 37 37 35 29 37 37 36 37 38 34 35 38 41 40 39 39 39 40 40 40 41 43 44 44 45 44 43 43 43 43 43 42 42 43 43 42 43
32 32 28 30 29 34 37 38 36 30 30 36 38 38 38 36 38 39 41 40 40 40 39 39 40 39 39 41 42 43 44 43 44 43 43 44 43 43 43 44 44 44 44 44
32 30 32 34 32 30 39 35 32 33 34 37 38 38 38 39 40 40 40 40 39 37 37 39 39 39 41 42 43 42 43 44 44 44 43 43 44 44 44 44 45 45 44 44
27 32 30 33 32 36 37 36 36 37 37 37 37 39 38 38 38 39 38 37 37 37 37 39 39 41 42 42 43 43 43 44 44 43 43 42 41 42 42 42 42 40 41 40
30 34 30 30 32 35 36 37 39 39 38 39 39 39 39 37 37 36 35 36 37 37 39 38 40 41 41 44 44 44 44 44 43 42 42 41 40 38 37 37 38 36 36 35
30 32 31 30 32 34 35 37 39 40 39 39 39 38 37 36 35 35 36 38 39 38 37 39 41 42 43 43 43 44 44 43 42 42 41 40 39 37 35 35 35 34 34 36
32 31 30 30 32 34 35 38 40 38 37 37 36 35 36 36 36 38 38 39 39 39 40 41 42 43 43 43 43 44 44 42 38 37 38 37 35 35 35 34 33 35 36 36

GFSCGP_sfc_dewp_222.txt.gz
Dewpoint
21 17 17 15 14 14 17 17 17 20 22 25 28 32 36 37 38 40 41 43 46 47 48 53 55 56 56 56 55 56 55 55 55 56 55 55 54 56 56 57 59 60 61 63
18 20 18 18 19 19 19 18 18 20 23 27 30 30 33 37 38 38 41 43 43 44 45 47 48 49 50 52 55 55 55 54 54 54 55 55 55 55 56 57 57 59 60 61
15 17 19 20 20 19 19 17 19 19 22 22 24 27 31 35 38 39 39 41 41 43 43 45 47 48 48 49 50 51 52 53 53 53 54 53 53 53 54 54 55 56 59 61
17 18 19 18 18 18 16 21 21 20 19 13 20 14 29 34 36 38 39 39 40 41 43 44 46 47 48 48 49 49 50 49 52 52 53 52 51 51 52 53 55 56 58 59
22 21 18 18 21 19 20 23 23 22 19 22 18 15 22 30 32 36 38 39 40 42 43 45 44 45 47 49 49 49 48 48 49 50 52 53 51 51 52 53 54 55 56 57
27 29 22 22 25 24 23 20 21 23 20 16 18 17 17 26 29 34 38 40 40 41 43 43 44 45 44 45 47 49 49 49 50 50 51 52 52 51 51 52 53 54 55 56
27 27 27 25 23 24 21 20 18 12 16 14 21 19 19 25 30 33 36 39 41 41 42 43 43 43 43 44 46 47 48 47 48 48 48 49 50 50 51 51 53 53 53 54
25 23 26 27 24 23 20 19 17 11 14 15 21 19 20 29 34 38 39 40 41 39 40 41 41 42 43 45 47 47 46 46 47 47 47 47 47 48 50 51 52 53 54 54
23 24 28 32 28 24 24 20 21 20 21 19 20 20 26 36 37 39 40 40 40 39 39 40 42 43 45 47 46 47 46 46 45 45 45 45 46 46 47 48 50 51 53 53
29 23 29 31 29 25 22 24 20 22 18 16 18 19 20 28 34 37 39 39 39 38 40 41 42 44 45 45 46 45 44 44 44 45 44 44 45 46 47 48 48 49 51 51
30 26 26 25 22 23 22 23 23 22 22 15 16 19 28 31 28 29 38 40 40 39 39 41 41 41 42 44 41 42 42 43 43 43 44 44 44 45 47 48 48 50 51 50
33 27 23 21 24 28 25 26 25 25 20 22 22 21 35 36 38 38 39 40 39 38 38 38 39 41 41 39 40 41 42 42 42 44 45 44 44 44 47 49 49 51 50 49
28 22 22 18 20 22 29 30 27 26 25 22 19 20 36 37 36 36 35 36 36 38 38 39 40 40 40 40 40 41 42 42 43 44 45 43 44 45 48 50 49 49 49 48
32 22 22 21 19 26 29 32 31 28 22 24 23 24 32 35 35 36 36 36 36 38 39 39 40 40 40 40 40 42 42 42 43 43 44 44 46 48 48 48 48 48 48 47
29 24 24 24 24 31 32 32 29 27 26 24 25 25 32 35 36 36 37 37 37 38 39 40 40 40 40 39 41 41 41 42 43 44 45 45 49 48 47 46 46 46 46 45
34 27 31 30 32 33 31 31 30 28 29 28 34 33 37 38 37 37 36 36 37 38 40 40 40 39 38 39 41 40 41 43 44 45 45 48 46 46 45 45 45 45 45 45
32 31 29 21 30 27 23 27 27 29 36 34 31 33 37 36 36 36 36 36 38 39 40 40 39 39 39 40 41 40 41 43 45 46 47 45 45 44 44 45 44 44 44 45
30 28 27 23 25 14 21 31 34 33 37 37 36 36 36 36 37 38 38 38 38 40 40 39 39 39 40 40 40 42 43 45 46 45 44 44 43 43 44 44 44 44 45 44
33 31 26 23 17 25 32 35 34 32 31 37 35 35 36 37 38 38 39 39 40 41 41 41 40 40 40 40 42 43 43 46 44 43 43 43 43 43 43 43 44 44 44 44
33 32 29 25 22 26 28 37 38 35 28 36 37 36 36 37 34 34 40 41 41 41 40 40 39 40 40 41 43 43 44 43 42 43 43 43 43 43 43 44 44 45 44 44
30 30 26 26 25 30 36 37 37 27 29 34 37 37 37 36 37 39 40 39 40 40 39 39 39 39 39 42 42 42 43 42 43 44 44 44 44 44 45 45 46 45 45 45
31 29 28 32 30 28 39 36 31 33 35 36 37 38 38 38 39 38 38 39 37 37 37 38 39 38 41 43 43 43 42 44 44 44 44 43 43 44 44 45 44 44 44 43
27 33 30 32 31 36 37 35 37 37 37 38 38 39 38 38 37 37 37 36 37 37 38 39 38 40 43 44 44 42 43 44 44 43 42 41 42 41 42 41 41 41 42 42
29 33 29 28 29 34 36 37 38 39 38 39 39 38 38 36 36 36 36 37 38 39 39 38 39 41 43 44 43 44 44 44 43 41 41 41 39 40 40 38 36 35 36 37
30 31 29 29 31 32 33 35 37 40 39 39 38 37 36 36 36 36 38 39 39 40 40 41 41 43 43 43 43 44 44 43 40 40 40 40 39 37 36 36 36 36 36 36
31 29 28 29 31 32 33 37 39 38 38 37 36 35 35 36 36 39 39 40 40 40 41 41 43 43 43 43 42 42 42 40 39 39 38 38 36 36 35 35 37 37 38 39